Location: Heidgraben
(53.7081°N, 9.6576°E)
Time: 10:54:03
(UTC+00:00)

Cosmos 2151 - Pass Details

Date: 05 July 2020
Orbit: 580 x 602 km, 82.5° (Epoch: 05 August)

Event Time Altitude Azimuth Distance (km) Brightness Sun altitude
Exits shadow 21:47:16 14° 141° (SE) 1,683 4.7 -10.7°
Maximum altitude 21:50:08 28° 89° (E) 1,140 4.2 -10.9°
Drops below altitude 10° 21:53:48 10° 31° (NNE) 1,943 6.2 -11.1°
Sets 21:56:14 0° 19° (NNE) 2,846 7.3 -11.2°
